Location: Hirschfeld
(49.9458°N, 10.1875°E)
Time: 00:09:42
(UTC+00:00)

Daily predictions for brighter satellites

Satellite Brightness Start Highest point End
(mag) Time Altitude Azimuth Time Altitude Azimuth Time Altitude Azimuth
Cosmos 1328 3.9 00:02:26 32° SW 00:03:48 54° WNW 00:07:21 10° N
Cosmos 546 4.4 00:00:04 10° WNW 00:03:52 76° SSW 00:07:42 10° ESE
SL-4 R/B 2.1 00:00:03 10° W 00:04:07 73° N 00:08:01 10° ENE
OPS 8737 3.9 00:01:58 10° NW 00:04:59 77° SW 00:06:00 38° SSE
Cosmos 1634 Rocket 4.2 00:00:21 10° NNW 00:06:30 59° W 00:10:18 24° SSW
Cosmos 2082 Rocket 4.1 00:03:27 10° NNW 00:08:27 30° NE 00:13:26 10° ESE
Cosmos 2278 Rocket 3.7 00:11:06 14° SSE 00:14:36 26° ESE 00:19:11 10° NE
SJ 16-02 1.8 00:15:31 23° SW 00:18:00 52° WNW 00:22:16 10° NNE
CZ-2C R/B 2.6 00:14:32 21° SSE 00:18:06 88° WSW 00:23:29 10° NNW
USA 229 DEB 4.1 00:12:26 10° NW 00:19:50 80° NE 00:27:56 10° SE
USA 229 4.1 00:12:34 10° NW 00:19:56 79° NE 00:28:02 10° SE
Cosmos 1943 Rocket 3.7 00:17:38 14° SSE 00:21:08 25° ESE 00:25:33 10° NE
Cosmos 2151 Rocket 3.8 00:17:14 10° N 00:21:39 70° ENE 00:24:39 20° SSE
Cosmos 371 Rocket 3.3 00:19:30 26° SSW 00:22:13 83° ESE 00:27:05 10° NNE
CZ-2D R/B 4.4 00:19:28 10° NE 00:22:31 15° E 00:25:32 10° ESE
NOSS 2-1 (C) 4.5 00:20:45 10° WNW 00:23:57 27° SW 00:24:43 25° SW
USA 307 2.9 00:20:42 11° WSW 00:24:19 69° NNW 00:28:17 10° ENE
Okean 2 Rocket 3.5 00:20:08 10° N 00:24:36 62° ENE 00:27:51 18° SSE
NOSS 2-1 (E) 4.4 00:24:22 10° WNW 00:27:39 28° SW 00:28:38 25° SSW
Cosmos 1741 Rocket 4.0 00:26:35 24° SSW 00:29:51 88° ESE 00:35:13 10° NNE
Okean 1 Rocket 3.5 00:30:18 10° N 00:34:44 60° ENE 00:38:19 15° SSE
Cosmos 375 4.3 00:31:49 10° NW 00:36:24 79° SW 00:40:15 10° SE
Cosmos 1025 Rocket 3.7 00:37:03 19° SSE 00:39:49 47° E 00:43:55 10° NNE
Nadezhda 4 Rocket 4.0 00:38:07 20° S 00:42:40 80° E 00:48:57 10° NNE
Cosmos 1844 Rocket 4.5 00:38:05 10° W 00:42:46 26° NW 00:47:31 10° NNE
Cosmos 1378 Rocket 3.6 00:40:25 25° SSW 00:42:58 76° WNW 00:47:22 10° N
SL-19 R/B 4.5 00:37:40 10° NNE 00:43:16 66° ESE 00:47:17 19° S
USA 234 3.2 00:38:17 10° ENE 00:44:51 86° SSE 00:51:10 11° WSW
In-Cosmos 22 Rocket 4.2 00:44:33 21° S 00:48:29 88° ESE 00:54:18 10° NNE
Cosmos 1340 Rocket 2.7 00:46:03 10° NNW 00:49:52 66° W 00:52:07 23° S
ADEOS II 4.2 00:50:07 10° NE 00:53:48 19° E 00:57:28 10° SE
USA 59 Rocket 1.8 00:51:54 10° W 00:54:17 15° WSW 00:54:17 15° WSW
Cosmos 158 Rocket 3.9 00:49:33 10° NNW 00:54:43 87° ENE 00:59:41 10° SSE
Cosmos 1606 4.4 00:53:39 10° WNW 00:55:08 13° W 00:55:42 12° W
ATLAS 3B R/B 3.1 00:55:10 10° NW 01:02:53 59° WSW 01:10:16 10° SSE
Cosmos 304 Rocket 4.4 01:00:52 17° SW 01:04:18 46° WNW 01:08:55 10° NNE
MOZ.5/SAFIR/RUBIN 5/SL-8 3.8 01:03:04 11° SSE 01:07:32 84° ENE 01:12:08 10° NNW
H-2A R/B 3.6 01:06:39 18° SW 01:07:58 22° W 01:10:52 10° NW
FENGYUN 3A 4.3 01:06:05 10° NNE 01:11:18 50° E 01:16:14 11° S
Cosmos 2026 Rocket 4.1 01:06:31 14° S 01:12:02 75° E 01:18:16 10° NNE
H-2A R/B 2.4 01:10:02 10° NNE 01:13:56 51° E 01:17:10 14° S
Cosmos 1869 4.1 01:13:18 10° NNW 01:16:39 32° W 01:18:36 19° SW
IDEFIX/ARIANE 42P 2.6 01:12:35 10° NNE 01:17:52 88° ESE 01:22:10 15° SSW
USA 305 1.7 01:15:47 10° WNW 01:18:07 48° NNE 01:19:35 10° E
SL-24 R/B - RUBIN 2 4.4 01:14:48 10° NW 01:19:12 34° WSW 01:22:27 14° S
ATLAS 2AS CENTAUR R/B 3.5 01:13:27 10° WSW 01:20:19 50° NW 01:27:01 10° NE
Cosmos 1455 Rocket 3.1 01:16:33 10° N 01:20:57 83° E 01:25:16 10° SSE
Cosmos 1833 Rocket 3.7 01:17:33 10° NW 01:22:17 28° WSW 01:25:45 16° SSW
Cosmos 2221 Rocket 3.9 01:21:46 18° SSW 01:24:54 53° WNW 01:29:15 10° N
Cosmos 1812 2.1 01:24:52 10° NNW 01:28:03 78° W 01:30:44 14° S
MSX 3.8 01:23:36 10° NNE 01:29:21 84° WNW 01:34:26 14° SSW
NPP 3.7 01:27:50 10° NNE 01:33:16 83° WNW 01:38:05 13° SSW
CZ-2C R/B 4.2 01:29:17 10° N 01:34:09 33° WNW 01:38:34 11° WSW
Meteor 1-11 4.4 01:31:27 14° SSW 01:36:21 68° WNW 01:42:11 10° N
ATLAS 5 CENTAUR R/B 3.0 01:34:50 10° SSE 01:36:52 16° ESE 01:38:58 10° ENE
Cosmos 332 Rocket 4.0 01:37:42 14° SW 01:41:46 62° WNW 01:46:34 10° NNE
Cosmos 2228 3.5 01:38:03 10° N 01:42:07 56° ENE 01:46:10 10° SSE
SL-4 R/B 2.0 01:38:19 10° WNW 01:42:19 78° NNE 01:46:05 10° E
COSMOS 2406 3.5 01:37:40 10° NNW 01:43:27 77° ENE 01:49:12 10° SSE
Resurs 1-4 Rocket 2.3 01:43:40 10° NNE 01:48:58 75° ESE 01:54:13 10° S
Cosmos 1666 2.5 01:49:38 11° SSE 01:51:00 25° E 01:52:27 10° NNE
Cosmos 2082 Rocket 2.3 01:47:18 10° NW 01:52:56 62° WSW 01:58:33 10° SSE
USA 307 3.8 01:50:58 10° WNW 01:54:48 44° N 01:58:27 10° ENE
Meteor 1-27 4.3 01:50:26 10° NNW 01:56:18 88° W 02:02:08 10° S
Cosmos 2278 Rocket 2.5 01:52:55 11° SW 01:58:14 62° WNW 02:03:53 10° NNE
CZ-2C R/B 4.5 01:56:24 10° WSW 01:59:09 14° W 02:01:57 10° NW
Cosmos 2098 Rocket 2.5 01:56:14 10° NNW 02:00:07 69° W 02:03:23 10° S
CZ-2D R/B 2.2 01:57:49 10° NNE 02:03:17 89° ESE 02:08:38 10° SSW
Cosmos 1943 Rocket 2.4 01:59:08 11° SW 02:04:26 61° WNW 02:09:56 10° NNE
Cosmos 1544 Rocket 3.7 02:00:35 10° N 02:04:54 76° ENE 02:09:12 10° SSE
SL-16 R/B 3.1 01:59:26 10° SSE 02:05:33 64° ENE 02:11:44 10° NNW
ALOS 2.5 02:01:08 10° NNE 02:05:43 67° ESE 02:10:15 10° S
AQUA 4.4 02:16:00 10° NNE 02:20:39 58° ESE 02:25:16 10° S
Cosmos 1553 Rocket 4.2 02:16:45 10° NNW 02:22:39 55° W 02:28:33 10° SSW
S3M 4.2 02:18:07 10° N 02:24:32 83° E 02:30:57 10° S
Cosmos 1503 Rocket 4.3 02:21:58 10° SSW 02:27:12 70° ESE 02:32:25 10° NNE
USA 234 4.0 02:21:22 10° ENE 02:27:41 54° NNW 02:33:59 10° W
NOAA 11 4.3 02:26:42 10° NNE 02:32:13 80° WNW 02:37:42 10° SSW
